Weather History for Adana Incirlik AFB, Turkey

Change the Weather History Date:

Monday, October 8, 2012

  Actual Average Record
Temperature  
Mean Temperature 73 °F -  
Max Temperature 82 °F 81 °F 95 °F (2001)
Min Temperature 64 °F 58 °F 51 °F (2013)
Cooling Degree Days 8    
Growing Degree Days 23 (Base 50)    
Moisture  
Dew Point 62 °F    
Average Humidity 79    
Maximum Humidity 100    
Minimum Humidity 39    
Precipitation  
Precipitation 0.08 in - - ()
Sea Level Pressure  
Sea Level Pressure 29.86 in    
Wind  
Wind Speed 6 mph ()    
Max Wind Speed 13 mph    
Max Gust Speed -    
Visibility 6.3 miles    
Events Rain , Thunderstorm    
Averages and records for this station are not official NWS values.
T = Trace of Precipitation, MM = Missing Value Source: Averaged Metar Reports

Daily Weather History Graph

Daily Weather History Graph

Search for Another Location

Airport:

Trip Planner

Search our weather history database for the weather conditions in past years. The results will help you decide how hot, cold, wet, or windy it might be!

Date:

Astronomy

Oct. 08, 2012 Rise Set
Actual Time 6:39 AM EEST 6:11 PM EEST
Civil Twilight 6:13 AM EEST 6:37 PM EEST
Nautical Twilight 5:43 AM EEST 7:07 PM EEST
Astronomical Twilight 5:13 AM EEST 7:37 PM EEST
Moon No Moon Rise 1:37 PM EEST (10/8)
Length of Visible Light 12h 23m
Length of Day
11h 31m
Waning Gibbous, 49% of the Moon is Illuminated
Oct 8
Waning Gibbous
Oct 15
New
Oct 22
First Quarter
Oct 29
Full
Nov 7
Last Quarter

Hourly Weather History & Observations

Time (EEST) Temp. Heat Index Dew Point Humidity Pressure Visibility Wind Dir Wind Speed Gust Speed Precip Events Conditions
12:20 AM 68.0 °F - 62.6 °F 83% 29.89 in 6.2 mi North 6.9 mph - N/A   Mostly Cloudy
12:50 AM 66.2 °F - 62.6 °F 88% 29.86 in 6.2 mi North 8.1 mph - N/A   Mostly Cloudy
1:20 AM 66.2 °F - 62.6 °F 88% 29.86 in 6.2 mi North 8.1 mph - N/A   Mostly Cloudy
1:50 AM 66.2 °F - 62.6 °F 88% 29.86 in 6.2 mi NNE 8.1 mph - N/A   Scattered Clouds
2:20 AM 66.2 °F - 62.6 °F 88% 29.86 in 6.2 mi NNE 5.8 mph - N/A   Mostly Cloudy
2:50 AM 66.2 °F - 62.6 °F 88% 29.86 in 6.2 mi North 8.1 mph - N/A Thunderstorm Mostly Cloudy
3:00 AM 66 °F - 62 °F 85% 29.85 in 12 mi North 8.1 mph - -   Mostly Cloudy
3:20 AM 66.2 °F - 62.6 °F 88% 29.86 in 6.2 mi North 6.9 mph - N/A Thunderstorm Thunderstorm
3:50 AM 68.0 °F - 62.6 °F 83% 29.86 in 6.2 mi North 9.2 mph - N/A Thunderstorm Thunderstorm
4:20 AM 68.0 °F - 62.6 °F 83% 29.86 in 6.2 mi North 8.1 mph - N/A Rain , Thunderstorm Light Thunderstorms and Rain
4:50 AM 68.0 °F - 62.6 °F 83% 29.86 in 6.2 mi SE 3.5 mph - N/A   Mostly Cloudy
5:20 AM 66.2 °F - 64.4 °F 94% 29.86 in 6.2 mi SE 3.5 mph - N/A   Mostly Cloudy
5:50 AM 66.2 °F - 64.4 °F 94% 29.86 in 6.2 mi SE 2.3 mph - N/A   Mostly Cloudy
6:20 AM 66.2 °F - 64.4 °F 94% 29.86 in 6.2 mi North 3.5 mph - N/A   Mostly Cloudy
6:50 AM 66.2 °F - 66.2 °F 100% 29.89 in 6.2 mi South 2.3 mph - N/A   Mostly Cloudy
7:20 AM 66.2 °F - 64.4 °F 94% 29.89 in 6.2 mi ESE 3.5 mph - N/A   Mostly Cloudy
7:50 AM 66.2 °F - 64.4 °F 94% 29.89 in 6.2 mi Calm Calm - N/A   Mostly Cloudy
8:20 AM 66.2 °F - 66.2 °F 100% 29.89 in 6.2 mi NW 3.5 mph - N/A   Mostly Cloudy
8:50 AM 68.0 °F - 66.2 °F 94% 29.89 in 6.2 mi North 4.6 mph - N/A   Mostly Cloudy
9:00 AM 67 °F - 66 °F 97% 29.88 in 6 mi North 4.6 mph - -   Partly Cloudy
9:20 AM 69.8 °F - 62.6 °F 78% 29.89 in 6.2 mi North 5.8 mph - N/A   Mostly Cloudy
9:50 AM 71.6 °F - 60.8 °F 69% 29.89 in 6.2 mi SW 2.3 mph - N/A   Mostly Cloudy
10:20 AM 75.2 °F - 59.0 °F 57% 29.89 in 6.2 mi Variable 2.3 mph - N/A   Mostly Cloudy
10:50 AM 77.0 °F - 59.0 °F 54% 29.89 in 6.2 mi South 2.3 mph - N/A   Mostly Cloudy
11:20 AM 77.0 °F - 59.0 °F 54% 29.89 in 6.2 mi SSE 2.3 mph - N/A   Mostly Cloudy
11:50 AM 78.8 °F - 55.4 °F 44% 29.86 in 6.2 mi SW 1.2 mph - N/A   Mostly Cloudy
12:20 PM 78.8 °F - 57.2 °F 47% 29.86 in 6.2 mi South 6.9 mph - N/A   Mostly Cloudy
12:50 PM 80.6 °F 80.5 °F 55.4 °F 42% 29.86 in 6.2 mi South 8.1 mph - N/A   Mostly Cloudy
1:20 PM 80.6 °F 80.8 °F 57.2 °F 45% 29.86 in 6.2 mi South 6.9 mph - N/A   Mostly Cloudy
1:50 PM 78.8 °F - 60.8 °F 54% 29.86 in 6.2 mi South 9.2 mph - N/A   Mostly Cloudy
2:20 PM 80.6 °F 81.5 °F 60.8 °F 51% 29.86 in 6.2 mi SSW 9.2 mph - N/A   Scattered Clouds
2:50 PM 80.6 °F 81.1 °F 59.0 °F 48% 29.83 in 6.2 mi South 12.7 mph - N/A   Scattered Clouds
3:00 PM 80 °F - 59 °F 39% 29.83 in 6 mi South 12.7 mph - -   Mostly Cloudy
3:20 PM 78.8 °F - 59.0 °F 51% 29.83 in 6.2 mi South 9.2 mph - N/A   Scattered Clouds
3:50 PM 77.0 °F - 59.0 °F 54% 29.83 in 6.2 mi South 9.2 mph - N/A Rain , Thunderstorm Light Thunderstorms and Rain
4:20 PM 77.0 °F - 62.6 °F 61% 29.83 in 6.2 mi SW 10.4 mph - N/A   Scattered Clouds
4:50 PM 69.8 °F - 66.2 °F 88% 29.83 in 6.2 mi NNW 3.5 mph - N/A Rain , Thunderstorm Light Thunderstorms and Rain
5:20 PM 69.8 °F - 66.2 °F 88% 29.83 in 6.2 mi NNW 5.8 mph - N/A Rain , Thunderstorm Light Thunderstorms and Rain
5:50 PM 68.0 °F - 66.2 °F 94% 29.83 in 6.2 mi North 9.2 mph - N/A   Mostly Cloudy
6:20 PM 68.0 °F - 64.4 °F 88% 29.83 in 6.2 mi North 9.2 mph - N/A   Mostly Cloudy
6:50 PM 66.2 °F - 64.4 °F 94% 29.83 in 6.2 mi North 6.9 mph - N/A   Scattered Clouds
7:20 PM 66.2 °F - 64.4 °F 94% 29.86 in 6.2 mi North 6.9 mph - N/A   Scattered Clouds
7:50 PM 66.2 °F - 64.4 °F 94% 29.86 in 6.2 mi NNE 4.6 mph - N/A   Mostly Cloudy
8:20 PM 66.2 °F - 64.4 °F 94% 29.86 in 6.2 mi North 4.6 mph - N/A   Mostly Cloudy
8:50 PM 66.2 °F - 62.6 °F 88% 29.86 in 6.2 mi ENE 2.3 mph - N/A   Mostly Cloudy
9:00 PM 67 °F - 62 °F 79% 29.86 in 6 mi ENE 2.3 mph - -   Partly Cloudy
9:20 PM 66.2 °F - 62.6 °F 88% 29.86 in 6.2 mi NNE 5.8 mph - N/A   Mostly Cloudy
9:50 PM 64.4 °F - 62.6 °F 94% 29.86 in 6.2 mi North 4.6 mph - N/A   Mostly Cloudy
10:20 PM 64.4 °F - 62.6 °F 94% 29.86 in 6.2 mi NNE 4.6 mph - N/A   Scattered Clouds
10:50 PM 64.4 °F - 62.6 °F 94% 29.86 in 6.2 mi NNE 5.8 mph - N/A   Scattered Clouds
11:20 PM 64.4 °F - 62.6 °F 94% 29.86 in 6.2 mi North 4.6 mph - N/A   Scattered Clouds
11:50 PM 64.4 °F - 62.6 °F 94% 29.86 in 6.2 mi North 4.6 mph - N/A   Scattered Clouds